Volver al catálogo

SL-12 DEB

LostHEO
NORAD 42976·DEBRIS·🇷🇺 Russia

Lanzado Sep 2, 2010 desde Baikonur Cosmodrome

Loading…

Próximos Pases (próximas 24 horas)

TLE

ObsoletoSource: Space-Track

Época: Feb 25, 2019, 09:46 UTC

1 42976U 10041R   19056.40747190  .00050777  00000-0  89825-1 0  9996
2 42976  65.2890 345.3283 5684384  56.8562 345.3881  4.34194694 22907

Sigue SL-12 DEB en tiempo real con AllMySat

Download on the App Store